Location: Mahannah Oil Field
(37.4664°N, 96.6003°W)
Time: 14:54:43
(UTC+00:00)

Vanguard 2 Rocket - Pass Details

Date: 26 June 2021
Orbit: 554 x 3325 km, 32.9° (Epoch: 24 July)

Event Time Altitude Azimuth Distance (km) Brightness Sun altitude
Rises 04:59:27 0° 282° (WNW) 7,260 12.0 -25.6°
Reaches altitude 10° 05:04:48 10° 278° (W) 6,080 11.4 -26.0°
Maximum altitude 05:21:48 50° 211° (SSW) 2,841 9.0 -27.1°
Enters shadow 05:25:28 42° 172° (S) 2,810 8.8 -27.4°
